Погода в Николаевке

Украина / Харьковская область     49°12′25″N   35°18′35″E
темп.,
°C
ветер,
м/с
пор.,
м/с
влажн.,
%
обл.,
%
осадки,
мм/ч
давл.,
гПа
погр.,
м
21 января, чт
чт2123:00−16ююв33930 0.0 102849
02:00−17ююв34920 0.0 102854
05:00−17ююв35890 0.0 102889
08:00−16ююв46874 0.0 1028126
11:00−9ю598915 0.0 1027287
14:00−4ююз6109351 0.0 1024432
17:00−2ююз6119699 0.0 1025517
20:00−1ююз51195100 0.1 1023396
22 января, пт
пт2223:00−1ююз51096100 0.0 1023433
02:000ююз4997100 0.0 1022345
05:00+1ююз51097100 0.0 1021412
08:00+1ююз51297100 0.0 1021407
11:00+2ююз612100100 0.0 1021438
14:00+3ююз51399100 0.0 1020432
17:00+2ю61299100 0.0 1019352
20:00+2ю51298100 0.0 1019297
23 января, сб
сб2323:00+2ююз5149698 0.0 1019409
02:00+2ю5129899 0.0 1018316
05:00+2ю51195100 0.0 1017356
08:00+2ю5129388 0.0 1018357
11:00+4ю61392100 0.0 1017396
14:00+4ю61288100 0.0 1016432
17:00+3ююв61291100 0.0 1016353
20:00+3ююв6129196 0.0 1016353
24 января, вс
вс2423:00+4ююв61291100 0.0 1015358
02:00+4ю61491100 0.0 1015401
05:00+3ю61389100 0.0 1015347
08:00+4ююв61389100 0.0 1015338
11:00+5ююв71483100 0.0 1014441
14:00+6ююв71479100 0.0 1012537
17:00+3ююв71778100 0.0 1012468
20:00+2ююв81583100 0.3 1012400
25 января, пн
пн2523:00+3ююв71494100 1.4 1011427
02:00+3ююв61196100 3.4 1011360
05:00+5ююв61297100 0.0 1010422
08:00+5ююв61295100 0.0 1011389
11:00+7ююв61187100 0.0 1011606
14:00+9ююв61280100 0.0 1009671
17:00+7юв71482100 0.0 1008558
20:00+6юв91783100 1.0 1006668